Retour au catalogue

STARLINK-34864

ActifCommunicationsVLEO
NORAD 65330·PAYLOAD·🇺🇸 United States

Lancé Aug 27, 2025 depuis Cape Canaveral Space Force Station

Loading…

Prochains Passages (prochaines 24 heures)

TLE

FraisSource: CelesTrak SupGP

Époque: Sep 15, 2026, 03:11 UTC

1 65330C 25189H   26258.13312500 -.00009728  00000+0 -31282-3 0  2584
2 65330  53.1587  45.5857 0001047  94.2879  81.4413 15.31708315    19

Suivez STARLINK-34864 en temps réel avec AllMySat

Download on the App Store